Regional Weather Roundup
Issued by NWS Green Bay, WI

Home | Current Version | Previous Version | Graphics & Text | Print | Product List | Glossary Off
Versions: 1 2 3 4 5 6 7 8 9 10 11 12 13 14 15 16 17 18 19 20 21 22 23 24 25 26 27 28 29 30 31 32 33 34 35 36 37 38 39 40 41 42 43 44 45 46 47 48 49 50

000
ASUS43 KGRB 212310
RWRGRB

NORTH-CENTRAL AND NORTHEAST WISCONSIN REGIONAL WEATHER ROUNDUP
NATIONAL WEATHER SERVICE GREEN BAY WI
500 PM CST FRI NOV 21 2014

WIZ005-009-010>012-018-019-220000-
NORTH CENTRAL WISCONSIN

CITY           SKY/WX    TMP DP  RH WIND       PRES   REMARKS
IRONWOOD       PTCLDY    27  10  50 S16G26    29.89S
MANITOWISH WTR PTCLDY    21   4  48 S12G17    29.97F WCI   9
ARBOR VITAE    PTCLDY    22   6  51 S13G21    30.00S WCI  10
EAGLE RIVER    CLEAR     20   4  49 S6        30.01F
LAND O LAKES   PTCLDY    21   5  49 S9G17     29.99F
RHINELANDER    PTCLDY    21   4  47 S17G24    30.03F WCI   7
PHILLIPS       MOCLDY    22   5  48 S14       30.00F WCI   9
ANTIGO         CLOUDY    22   8  54 S14       30.08F WCI   9
TOMAHAWK       MOCLDY    21   7  53 S3        30.05F
MERRILL        PTCLDY    24   6  48 S6        30.08F
$$

WIZ013-073-220000-
NORTHEAST WISCONSIN

CITY           SKY/WX    TMP DP  RH WIND       PRES   REMARKS
IRON MOUNTAIN  MOCLDY    20   3  48 S10       30.08F WCI   9
MARINETTE      PTCLDY    27   9  46 SW16G23   30.17F
OCONTO         MOCLDY    26   7  43 S9        30.19F
$$

WIZ017-030-035>037-045-220000-
CENTRAL WISCONSIN

CITY           SKY/WX    TMP DP  RH WIND       PRES   REMARKS
MEDFORD        PTCLDY    21   8  56 S13       30.06F WCI   9
WAUSAU         MOCLDY    25   6  44 S12       30.09F
MOSINEE        PTCLDY    25   9  50 S14       30.12F
MARSHFIELD     CLEAR     24   7  48 S12       30.11F
WISC RAPIDS    PTCLDY    27   4  37 S8        30.16F
STEVENS POINT  PTCLDY    24   6  46 S10       30.15S
WAUPACA        MOCLDY    30   9  41 S9        30.18F
SHAWANO        PTCLDY    28   9  45 S3        30.17F
CLINTONVILLE   PTCLDY    28  10  47 S12       30.18F
$$

WIZ038-039-048-051-220000-
FOX VALLEY

CITY           SKY/WX    TMP DP  RH WIND       PRES   REMARKS
NWS GREEN BAY  PTCLDY    28   9  44 S9        30.20F
APPLETON       MOCLDY    27   9  46 SW12      30.20F
OSHKOSH        MOCLDY    28  10  46 S9        30.21F
FOND DU LAC    MOCLDY    29   8  41 S14       30.22F
$$

WIZ022-050-052-220000-
EAST CENTRAL WISCONSIN

CITY           SKY/WX    TMP DP  RH WIND       PRES   REMARKS
STURGEON BAY   PTCLDY    27   9  46 S13G18    30.19F
MANITOWOC      MOCLDY    30   8  39 S14       30.23F
SHEBOYGAN      PTCLDY    28   8  43 S13       30.24F
$$

LMZ563-521-522-541>543-220000-
LAKESHORE

STATION/POSITION TIME  TEMP    WIND        PRES    VSBY  WAVE
                       AIR SEA DIR/SP/G                  HT/PER
                 (UTC) (F)     (DEG/KT/KT) (MB)    (MI)  (FT/S)
SHEBOYGAN LKSHOR 2300   31 35  200/ 17/ 20 1025.4F
KEWAUNEE LKSHORE 2300   29     190/ 13/ 16 1022.3F
NORTHPORT PIER   2300   27     180/  3/  9 1022.0F
N MID LAKE BUOY  2300   33 42  210/ 27/ 33 1022.6F         8/ 6
SISTER BAY LKSHO 2300          210/ 15/ 19   N/A
STURGEON BAY CG  2200   28     200/ 14     1023.2      6   3
CHAMBERS ISLAND  2300   29     190/ 10/ 20 1022.0F
MENOMINEE LKSHOR 2300   28     200/ 13/ 19 1022.4F
$$



USA.gov is the U.S. government's official web portal to all federal, state and local government web resources and services.